Location: Palo Alto
(37.4420°N, 122.1420°W)
Time: 06:53:45
(UTC-07:00)

ISS - All Passes

Search period start: 26 September 2016 00:00
Search period end: 06 October 2016 00:00
Orbit: 401 x 409 km, 51.6° (Epoch: 26 September)

Date Brightness Start Highest point End Pass type
(mag) Time Alt. Az. Time Alt. Az. Time Alt. Az.
26 Sep - 02:40:36 10° N 02:42:16 13° NNE 02:43:57 10° NE night (unlit)
26 Sep - 04:15:57 10° NW 04:19:15 71° NE 04:22:31 10° SE night (unlit)
26 Sep - 20:54:23 10° SW 20:57:36 68° SE 21:00:51 10° NE visible
26 Sep - 22:32:11 10° WNW 22:34:23 17° NNW 22:36:36 10° NNE night (unlit)
27 Sep - 03:24:02 10° NW 03:27:08 36° NE 03:30:12 10° ESE night (unlit)
27 Sep - 05:00:57 10° W 05:03:26 20° SW 05:05:54 10° S night (unlit)
27 Sep - 20:02:42 10° SSW 20:05:37 31° SE 20:08:32 10° ENE visible
27 Sep - 21:39:20 10° W 21:42:07 25° NNW 21:44:54 10° NNE visible
28 Sep - 02:32:14 10° NNW 02:34:53 22° NNE 02:37:33 10° E night (unlit)
28 Sep - 04:08:22 10° WNW 04:11:29 40° SW 04:14:36 10° SSE night (unlit)
28 Sep - 19:11:40 10° SSE 19:13:41 16° SE 19:15:44 10° E daylight
28 Sep - 20:46:47 10° WSW 20:49:54 44° NW 20:53:03 10° NE visible
28 Sep - 22:26:17 10° NNW 22:27:04 11° NNW 22:27:51 10° N night (unlit)
29 Sep - 01:40:35 10° NNW 01:42:34 15° NNE 01:44:34 10° ENE night (unlit)
29 Sep - 03:16:09 10° NW 03:19:27 87° SW 03:22:44 10° SE night (unlit)
29 Sep - 19:54:32 10° SW 19:57:46 90° SSE 20:01:02 10° NE visible
29 Sep - 21:32:44 10° WNW 21:34:39 15° NNW 21:36:35 10° NNE visible
30 Sep - 00:49:15 10° N 00:50:10 11° NNE 00:51:05 10° NE night (unlit)
30 Sep - 02:24:08 10° NW 02:27:19 46° NE 02:30:30 10° ESE night (unlit)
30 Sep - 04:01:30 10° W 04:03:32 15° SW 04:05:33 10° SSW night (unlit)
30 Sep - 19:02:39 10° SSW 19:05:42 41° SE 19:08:48 10° ENE daylight
30 Sep - 20:39:43 10° W 20:42:19 21° NNW 20:44:55 10° NNE visible
01 Oct - 01:32:15 10° NNW 01:35:05 26° NNE 01:37:55 10° E night (unlit)
01 Oct - 03:08:38 10° WNW 03:11:34 30° SW 03:14:30 10° SSE night (unlit)
01 Oct - 18:11:16 10° S 18:13:43 20° SE 18:16:12 10° E daylight
01 Oct - 19:47:01 10° WSW 19:50:03 35° NW 19:53:05 10° NE visible
02 Oct - 00:40:30 10° NNW 00:42:46 17° NNE 00:45:01 10° ENE night (unlit)
02 Oct - 02:16:17 10° NW 02:19:32 66° SW 02:22:47 10° SE night (unlit)
02 Oct - 18:54:37 10° WSW 18:57:50 69° NW 19:01:05 10° NE daylight
02 Oct - 20:33:14 10° NW 20:34:50 13° NNW 20:36:25 10° N visible
02 Oct - 23:48:58 10° N 23:50:21 12° NNE 23:51:44 10° NE night (unlit)
03 Oct - 01:24:09 10° NW 01:27:23 59° NE 01:30:38 10° ESE night (unlit)
03 Oct - 03:02:12 10° WSW 03:03:30 12° SW 03:04:47 10° SSW night (unlit)
03 Oct - 18:02:33 10° SW 18:05:43 55° SE 18:08:54 10° ENE daylight
03 Oct - 19:40:03 10° WNW 19:42:25 18° NNW 19:44:48 10° NNE visible
04 Oct - 00:32:11 10° NNW 00:35:09 31° NNE 00:38:08 10° E night (unlit)
04 Oct - 02:08:50 10° WNW 02:11:32 24° SW 02:14:13 10° S night (unlit)
04 Oct - 17:10:55 10° S 17:13:40 26° SE 17:16:25 10° ENE daylight
04 Oct - 18:47:11 10° W 18:50:04 29° NNW 18:52:59 10° NNE daylight
04 Oct - 23:40:20 10° NNW 23:42:50 20° NNE 23:45:19 10° ENE night (unlit)
05 Oct - 01:16:19 10° WNW 01:19:28 49° SW 01:22:39 10° SSE night (unlit)
05 Oct - 16:20:06 10° SSE 16:21:40 13° SE 16:23:15 10° E daylight
05 Oct - 17:54:38 10° WSW 17:57:48 53° NW 18:01:01 10° NE daylight
05 Oct - 19:33:43 10° NW 19:34:53 11° NNW 19:36:03 10° N visible
05 Oct - 22:48:39 10° N 22:50:24 14° NNE 22:52:08 10° NE night (unlit)
